Location: Newark
(39.6867°N, 100.6772°W)
Time: 13:00:09
(UTC+00:00)

OTV 5 (USA 277) - Visible Passes

Search period start: 23 September 2019 00:00
Search period end: 03 October 2019 00:00
Orbit: 295 x 339 km, 54.5° (Epoch: 08 September)

Date Brightness Start Highest point End Pass type
(mag) Time Alt. Az. Time Alt. Az. Time Alt. Az.
28 Sep ? 11:59:46 10° SSE 12:01:21 14° SE 12:02:56 10° E visible
01 Oct ? 11:09:10 16° S 11:10:36 23° SE 11:12:55 10° ENE visible
02 Oct ? 11:23:57 33° SSW 11:25:02 72° SE 11:27:51 10° NE visible
